FW0824 Weather Reports


Display with metric or nautical units.
time (UTC)temp
F
wind
direction
speed
MPH
gust
MPH
rain 1hr
in
rain 24hr
in
rain mn
in
humidity
%
barometer
mb
20210730073708 67 347 0.0 2.0 0.00 0.00 0.00 76 1022.1
20210730073209 67 347 0.0 2.0 0.00 0.00 0.00 76 1022.0
20210730072708 67 347 0.0 2.0 0.00 0.00 0.00 76 1022.1
20210730072205 67 347 0.0 1.0 0.00 0.00 0.00 77 1022.1
20210730071704 67 347 0.0 1.0 0.00 0.00 0.00 76 1022.2
20210730071203 68 347 0.0 1.0 0.00 0.00 0.00 76 1022.2
20210730070702 68 347 0.0 1.0 0.00 0.00 0.00 76 1022.1
20210730070200 68 347 0.0 0.0 0.00 0.00 0.00 76 1022.1
20210730065701 68 347 0.0 0.0 0.00 0.00 0.00 76 1022.1
20210730065202 68 347 0.0 0.0 0.00 0.00 0.00 76 1022.2
20210730064703 68 347 0.0 0.0 0.00 0.00 0.00 76 1022.4
20210730064201 68 347 0.0 0.0 0.00 0.00 0.00 76 1022.3
20210730063703 68 347 0.0 0.0 0.00 0.00 0.00 76 1022.5
20210730063201 68 347 0.0 0.0 0.00 0.00 0.00 75 1022.4
20210730062700 69 347 0.0 0.0 0.00 0.00 0.00 75 1022.3
20210730062200 69 347 0.0 0.0 0.00 0.00 0.00 74 1022.1
20210730061702 69 347 0.0 0.0 0.00 0.00 0.00 74 1022.1
20210730061201 69 347 0.0 0.0 0.00 0.00 0.00 74 1022.0
20210730060702 69 347 0.0 0.0 0.00 0.00 0.00 74 1022.1
20210730060202 69 347 0.0 0.0 0.00 0.00 0.00 73 1022.2
20210730055700 69 347 0.0 0.0 0.00 0.00 0.00 73 1022.2
20210730055201 69 347 0.0 0.0 0.00 0.00 0.00 73 1022.2
20210730054700 69 347 0.0 0.0 0.00 0.00 0.00 73 1022.1
20210730054202 70 347 0.0 0.0 0.00 0.00 0.00 72 1022.1
20210730053703 70 347 0.0 1.0 0.00 0.00 0.00 72 1022.1
20210730053202 70 347 0.0 1.0 0.00 0.00 0.00 72 1022.3
20210730052701 70 347 0.0 1.0 0.00 0.00 0.00 72 1022.3
20210730052200 70 347 0.0 1.0 0.00 0.00 0.00 71 1022.3
20210730051703 71 347 0.0 1.0 0.00 0.00 0.00 71 1022.2
20210730051200 71 347 0.0 1.0 0.00 0.00 0.00 71 1022.2
20210730050702 71 347 0.0 2.0 0.00 0.00 0.00 71 1022.3
20210730050200 71 347 0.0 2.0 0.00 0.00 0.00 70 1022.3
20210730045702 71 347 0.0 2.0 0.00 0.00 0.00 70 1022.4
20210730045200 71 347 0.0 2.0 0.00 0.00 0.00 70 1022.3
20210730044701 71 347 1.0 3.0 0.00 0.00 0.00 70 1022.3
20210730044201 72 347 1.0 3.0 0.00 0.00 0.00 70 1022.3
20210730043701 72 347 0.0 3.0 0.00 0.00 0.00 70 1022.4
20210730043203 72 355 0.0 0.0 0.00 0.00 0.00 69 1022.2
20210730042701 72 355 0.0 1.0 0.00 0.00 0.00 69 1022.2
20210730042202 72 0 0.0 3.0 0.00 0.00 0.00 69 1022.2
20210730041701 72 0 1.0 3.0 0.00 0.00 0.00 68 1022.0
20210730041201 73 0 0.0 2.0 0.00 0.00 0.00 68 1022.1
20210730040701 73 0 0.0 3.0 0.00 0.00 0.00 67 1022.0
20210730040201 73 0 1.0 3.0 0.00 0.00 0.00 67 1022.1
20210730035702 73 0 1.0 3.0 0.00 0.00 0.00 67 1022.1
20210730035202 73 0 0.0 2.0 0.00 0.00 0.00 66 1022.0
20210730034703 73 0 0.0 1.0 0.00 0.00 0.00 65 1022.0
20210730034201 73 0 1.0 4.0 0.00 0.00 0.00 65 1021.8
20210730033701 74 0 1.0 4.0 0.00 0.00 0.00 64 1022.0
20210730033200 74 5 1.0 4.0 0.00 0.00 0.00 64 1022.1
20210730032701 74 5 1.0 4.0 0.00 0.00 0.00 63 1022.0
20210730032201 74 342 1.0 3.0 0.00 0.00 0.00 63 1021.9
20210730031701 74 342 1.0 3.0 0.00 0.00 0.00 62 1021.7
20210730031200 74 168 1.0 6.0 0.00 0.00 0.00 62 1021.6
20210730030702 74 26 2.0 6.0 0.00 0.00 0.00 61 1021.6
20210730030201 74 25 2.0 5.0 0.00 0.00 0.00 61 1021.6
20210730025700 75 5 2.0 6.0 0.00 0.00 0.00 61 1021.7
20210730025200 75 28 2.0 6.0 0.00 0.00 0.00 62 1021.6
20210730024702 75 18 2.0 5.0 0.00 0.00 0.00 62 1021.5
20210730024202 75 355 2.0 9.0 0.00 0.00 0.00 62 1021.5
20210730023700 75 355 2.0 10.0 0.00 0.00 0.00 62 1021.5
20210730023200 75 355 2.0 10.0 0.00 0.00 0.00 62 1021.4
20210730022701 75 355 2.0 8.0 0.00 0.00 0.00 63 1021.3
20210730022201 76 9 2.0 6.0 0.00 0.00 0.00 63 1021.2
20210730021701 76 5 2.0 5.0 0.00 0.00 0.00 62 1021.2
20210730021201 76 0 2.0 5.0 0.00 0.00 0.00 62 1021.1
20210730020702 76 5 2.0 4.0 0.00 0.00 0.00 62 1021.1
20210730020202 76 349 1.0 3.0 0.00 0.00 0.00 62 1020.9
20210730015701 76 349 2.0 8.0 0.00 0.00 0.00 62 1020.9
20210730015202 76 349 3.0 8.0 0.00 0.00 0.00 62 1020.9
20210730014702 76 5 2.0 7.0 0.00 0.00 0.00 62 1020.9
20210730014202 76 5 2.0 6.0 0.00 0.00 0.00 62 1020.9
20210730013701 77 329 2.0 5.0 0.00 0.00 0.00 63 1020.9
20210730013200 77 5 2.0 5.0 0.00 0.00 0.00 62 1020.9
20210730012700 77 343 2.0 5.0 0.00 0.00 0.00 62 1020.7
20210730012202 77 24 2.0 5.0 0.00 0.00 0.00 62 1020.9
20210730011702 77 355 2.0 5.0 0.00 0.00 0.00 62 1020.9
20210730011200 77 0 2.0 5.0 0.00 0.00 0.00 62 1020.7
20210730010700 77 338 2.0 6.0 0.00 0.00 0.00 61 1020.7
20210730010200 77 355 2.0 6.0 0.00 0.00 0.00 61 1020.9
20210730005702 77 5 1.0 4.0 0.00 0.00 0.00 61 1020.7
20210730005202 77 5 1.0 5.0 0.00 0.00 0.00 60 1020.6
20210730004700 77 5 2.0 5.0 0.00 0.00 0.00 60 1020.6
20210730004201 77 5 2.0 6.0 0.00 0.00 0.00 60 1020.7
20210730003701 77 342 2.0 6.0 0.00 0.00 0.00 59 1020.9
20210730003200 78 0 1.0 4.0 0.00 0.00 0.00 59 1020.7
20210730002701 78 0 2.0 6.0 0.00 0.00 0.00 59 1020.7
20210730002201 78 0 3.0 8.0 0.00 0.00 0.00 58 1020.7
20210730001701 78 355 3.0 8.0 0.00 0.00 0.00 58 1020.7
20210730001201 78 336 3.0 8.0 0.00 0.00 0.00 57 1020.6
20210730000701 78 355 2.0 9.0 0.00 0.00 0.00 57 1020.6
20210730000201 78 9 2.0 9.0 0.00 0.00 0.00 56 1020.5
20210729235702 78 5 2.0 9.0 0.00 0.00 0.00 55 1020.5
20210729235201 78 336 2.0 9.0 0.00 0.00 0.00 54 1020.3
20210729234705 79 17 2.0 9.0 0.00 0.00 0.00 54 1020.4
20210729234205 79 0 2.0 6.0 0.00 0.00 0.00 53 1020.4
20210729233701 79 348 2.0 6.0 0.00 0.00 0.00 53 1020.4
20210729233200 79 5 2.0 5.0 0.00 0.00 0.00 52 1020.3
20210729232701 80 13 2.0 5.0 0.00 0.00 0.00 52 1020.2
20210729232201 80 355 1.0 5.0 0.00 0.00 0.00 52 1020.3
20210729231703 80 355 2.0 5.0 0.00 0.00 0.00 52 1020.2
20210729231200 80 0 2.0 8.0 0.00 0.00 0.00 52 1020.1
20210729230703 80 10 2.0 8.0 0.00 0.00 0.00 51 1020.0
20210729230201 81 11 2.0 5.0 0.00 0.00 0.00 52 1019.9
20210729225701 81 0 2.0 9.0 0.00 0.00 0.00 51 1020.0
20210729225201 80 355 2.0 9.0 0.00 0.00 0.00 51 1020.1
20210729224701 80 346 3.0 9.0 0.00 0.00 0.00 51 1020.1
20210729224202 81 343 4.0 12.0 0.00 0.00 0.00 50 1020.0
20210729223702 81 11 3.0 12.0 0.00 0.00 0.00 50 1020.0
20210729223201 81 21 3.0 9.0 0.00 0.00 0.00 49 1020.0
20210729222701 81 355 3.0 10.0 0.00 0.00 0.00 50 1020.0
20210729222205 82 23 3.0 10.0 0.00 0.00 0.00 49 1019.9
20210729221702 82 20 3.0 10.0 0.00 0.00 0.00 50 1019.8
20210729221203 82 0 2.0 8.0 0.00 0.00 0.00 49 1019.8
20210729220702 82 14 2.0 8.0 0.00 0.00 0.00 49 1019.7
20210729220155 82 351 2.0 5.0 0.00 0.00 0.00 50 1019.7
20210729215652 82 349 2.0 5.0 0.00 0.00 0.00 51 1019.7
20210729215152 82 355 2.0 5.0 0.00 0.00 0.00 51 1019.8
20210729214650 82 13 2.0 9.0 0.00 0.00 0.00 50 1019.7
20210729214149 82 355 3.0 9.0 0.00 0.00 0.00 49 1019.8
20210729213642 82 11 3.0 8.0 0.00 0.00 0.00 49 1019.9
20210729213143 82 14 3.0 10.0 0.00 0.00 0.00 49 1019.8
20210729212642 82 346 3.0 10.0 0.00 0.00 0.00 49 1019.7
20210729212142 82 355 2.0 8.0 0.00 0.00 0.00 50 1019.6
20210729211642 82 17 2.0 8.0 0.00 0.00 0.00 52 1019.7
20210729211143 82 13 3.0 9.0 0.00 0.00 0.00 52 1019.6
20210729210643 83 355 3.0 9.0 0.00 0.00 0.00 53 1019.6
20210729210138 83 12 3.0 7.0 0.00 0.00 0.00 54 1019.6
20210729205638 83 331 3.0 8.0 0.00 0.00 0.00 54 1019.5
20210729205138 83 0 3.0 8.0 0.00 0.00 0.00 54 1019.5
20210729204638 83 342 2.0 8.0 0.00 0.00 0.00 54 1019.4
20210729204136 83 15 2.0 8.0 0.00 0.00 0.00 54 1019.4
20210729203638 83 19 3.0 8.0 0.00 0.00 0.00 54 1019.4
20210729203134 83 11 3.0 9.0 0.00 0.00 0.00 54 1019.6
20210729202632 83 20 3.0 10.0 0.00 0.00 0.00 54 1019.6
20210729202134 83 32 3.0 10.0 0.00 0.00 0.00 54 1019.6
20210729201629 83 35 3.0 9.0 0.00 0.00 0.00 53 1019.6
20210729201130 84 5 3.0 11.0 0.00 0.00 0.00 53 1019.6
20210729200630 84 9 3.0 11.0 0.00 0.00 0.00 53 1019.6
20210729200129 84 5 2.0 8.0 0.00 0.00 0.00 54 1019.5
20210729195629 83 28 2.0 9.0 0.00 0.00 0.00 54 1019.5
20210729195129 83 44 3.0 9.0 0.00 0.00 0.00 55 1019.5
20210729194629 82 0 3.0 12.0 0.00 0.00 0.00 55 1019.5
20210729194130 82 355 3.0 12.0 0.00 0.00 0.00 54 1019.6
20210729193630 82 0 5.0 13.0 0.00 0.00 0.00 55 1019.6
20210729193129 81 69 6.0 13.0 0.00 0.00 0.00 54 1019.6
20210729192631 81 36 5.0 13.0 0.00 0.00 0.00 54 1019.6
20210729192128 82 12 4.0 12.0 0.00 0.00 0.00 56 1019.6
20210729191629 82 36 3.0 12.0 0.00 0.00 0.00 57 1019.6
20210729191128 81 18 3.0 11.0 0.00 0.00 0.00 57 1019.7
20210729190630 81 5 3.0 11.0 0.00 0.00 0.00 57 1019.8
20210729190129 81 0 2.0 10.0 0.00 0.00 0.00 57 1019.7
20210729185630 80 11 2.0 8.0 0.00 0.00 0.00 58 1019.7
20210729185128 80 5 2.0 6.0 0.00 0.00 0.00 60 1019.7
20210729184630 80 355 2.0 6.0 0.00 0.00 0.00 60 1019.6
20210729184129 80 5 3.0 9.0 0.00 0.00 0.00 59 1019.6
20210729183629 80 11 3.0 9.0 0.00 0.00 0.00 59 1019.7
20210729183130 79 17 3.0 9.0 0.00 0.00 0.00 59 1019.7
20210729182630 79 21 3.0 9.0 0.00 0.00 0.00 60 1019.7
20210729182130 80 28 3.0 9.0 0.00 0.00 0.00 60 1019.7
20210729181627 80 355 3.0 7.0 0.00 0.00 0.00 60 1019.7
20210729181128 80 10 3.0 7.0 0.00 0.00 0.00 62 1019.8
20210729180627 80 335 3.0 8.0 0.00 0.00 0.00 61 1019.8
20210729180129 80 5 3.0 9.0 0.00 0.00 0.00 61 1019.6
20210729175625 80 5 2.0 9.0 0.00 0.00 0.00 60 1019.6
20210729175125 80 0 2.0 9.0 0.00 0.00 0.00 59 1019.6
20210729174619 80 5 3.0 9.0 0.00 0.00 0.00 60 1019.6
20210729174121 80 355 2.0 7.0 0.00 0.00 0.00 61 1019.7
20210729173621 80 350 2.0 8.0 0.00 0.00 0.00 62 1019.7
20210729173125 80 339 2.0 8.0 0.00 0.00 0.00 63 1019.6
20210729172619 80 337 3.0 9.0 0.00 0.00 0.00 65 1019.6
20210729172119 80 9 3.0 9.0 0.00 0.00 0.00 63 1019.6
20210729171615 80 34 3.0 10.0 0.00 0.00 0.00 63 1019.6
20210729171115 80 9 3.0 10.0 0.00 0.00 0.00 63 1019.8
20210729170614 80 5 3.0 9.0 0.00 0.00 0.00 62 1019.8
20210729170113 80 355 2.0 6.0 0.00 0.00 0.00 63 1019.8
20210729165613 80 19 2.0 8.0 0.00 0.00 0.00 64 1019.8
20210729165115 80 65 3.0 8.0 0.00 0.00 0.00 63 1019.6
20210729164614 80 9 3.0 9.0 0.00 0.00 0.00 62 1019.7
20210729164112 80 22 3.0 9.0 0.00 0.00 0.00 62 1019.6
20210729163609 80 350 4.0 9.0 0.00 0.00 0.00 62 1019.6
20210729163110 80 5 3.0 9.0 0.00 0.00 0.00 62 1019.5
20210729162610 80 44 2.0 9.0 0.00 0.00 0.00 63 1019.4
20210729162110 80 0 2.0 9.0 0.00 0.00 0.00 64 1019.4
20210729161610 80 9 2.0 8.0 0.00 0.00 0.00 64 1019.5
20210729161112 79 24 3.0 10.0 0.00 0.00 0.00 63 1019.3
20210729160611 79 355 4.0 10.0 0.00 0.00 0.00 64 1019.3
20210729160110 80 340 3.0 9.0 0.00 0.00 0.00 63 1019.2
20210729155610 80 17 3.0 9.0 0.00 0.00 0.00 64 1019.2
20210729155103 80 355 3.0 9.0 0.00 0.00 0.00 63 1019.2
20210729154603 80 5 2.0 9.0 0.00 0.00 0.00 64 1019.2
20210729154102 79 13 2.0 9.0 0.00 0.00 0.00 65 1019.2
20210729153602 79 0 2.0 7.0 0.00 0.00 0.00 66 1019.2
20210729153102 79 14 2.0 7.0 0.00 0.00 0.00 67 1019.1
20210729152601 79 337 2.0 7.0 0.00 0.00 0.00 68 1019.1
20210729152104 78 13 2.0 7.0 0.00 0.00 0.00 67 1019.1
20210729151601 78 355 3.0 8.0 0.00 0.00 0.00 68 1019.1
20210729151101 78 350 3.0 8.0 0.00 0.00 0.00 68 1019.1
20210729150601 78 17 3.0 7.0 0.00 0.00 0.00 69 1019.0
20210729150102 78 5 2.0 7.0 0.00 0.00 0.00 69 1018.9
20210729145601 78 119 2.0 6.0 0.00 0.00 0.00 70 1019.1
20210729145101 78 11 3.0 7.0 0.00 0.00 0.00 70 1018.9
20210729144601 77 9 3.0 7.0 0.00 0.00 0.00 71 1019.0
20210729144100 77 0 2.0 7.0 0.00 0.00 0.00 71 1018.9
20210729143601 77 9 2.0 5.0 0.00 0.00 0.00 73 1018.9
20210729143102 77 9 2.0 5.0 0.00 0.00 0.00 73 1018.8
20210729142602 76 12 3.0 8.0 0.00 0.00 0.00 74 1018.8
20210729142100 76 12 3.0 8.0 0.00 0.00 0.00 74 1018.7
20210729141601 76 317 3.0 8.0 0.00 0.00 0.00 75 1018.7
20210729141100 76 19 3.0 8.0 0.00 0.00 0.00 75 1018.6
20210729140601 76 338 3.0 8.0 0.00 0.00 0.00 76 1018.6
20210729140102 75 24 3.0 10.0 0.00 0.00 0.00 77 1018.6
20210729135601 75 9 3.0 10.0 0.00 0.01 0.00 77 1018.6
20210729135100 75 0 3.0 11.0 0.00 0.01 0.00 77 1018.5
20210729134604 75 17 3.0 11.0 0.00 0.02 0.00 78 1018.4
20210729134100 75 5 2.0 7.0 0.00 0.04 0.00 79 1018.4
20210729133601 74 30 2.0 7.0 0.00 0.04 0.00 79 1018.4
20210729133100 74 59 3.0 10.0 0.00 0.05 0.00 80 1018.4
20210729132601 74 5 4.0 11.0 0.00 0.06 0.00 80 1018.3
20210729132101 74 355 3.0 11.0 0.00 0.06 0.00 81 1018.3
20210729131603 74 342 3.0 9.0 0.00 0.06 0.00 81 1018.1
20210729131100 74 28 4.0 10.0 0.00 0.06 0.00 81 1018.2
20210729130603 74 26 4.0 10.0 0.00 0.07 0.00 81 1018.1
20210729130101 74 355 2.0 10.0 0.00 0.07 0.00 81 1018.0
20210729125604 74 355 2.0 7.0 0.00 0.07 0.00 82 1018.0
20210729125100 74 17 2.0 7.0 0.00 0.07 0.00 82 1017.9
20210729124601 74 0 2.0 9.0 0.00 0.07 0.00 82 1017.7
20210729124102 73 355 2.0 9.0 0.00 0.07 0.00 82 1017.7
20210729123602 73 346 4.0 10.0 0.00 0.07 0.00 82 1017.6
20210729123100 73 324 4.0 12.0 0.00 0.07 0.00 82 1017.5
20210729122602 73 355 3.0 12.0 0.00 0.08 0.00 82 1017.5
20210729122102 73 350 3.0 11.0 0.00 0.08 0.00 82 1017.5
20210729121601 73 349 3.0 11.0 0.00 0.08 0.00 82 1017.6
20210729121101 73 339 2.0 6.0 0.00 0.08 0.00 82 1017.5
20210729120602 73 15 2.0 8.0 0.00 0.08 0.00 82 1017.4
20210729120101 73 16 2.0 8.0 0.00 0.08 0.00 82 1017.3
20210729115601 73 0 3.0 8.0 0.00 0.08 0.00 82 1017.3
20210729115101 73 346 3.0 7.0 0.00 0.08 0.00 82 1017.2
20210729114602 73 5 3.0 5.0 0.00 0.08 0.00 82 1017.1
20210729114102 73 0 3.0 9.0 0.00 0.08 0.00 82 1017.1
20210729113602 73 19 2.0 9.0 0.00 0.08 0.00 82 1016.9
20210729113102 73 351 3.0 9.0 0.00 0.08 0.00 82 1016.8
20210729112603 73 355 2.0 9.0 0.00 0.08 0.00 82 1016.7
20210729112102 74 341 2.0 4.0 0.00 0.08 0.00 82 1016.7
20210729111605 74 9 2.0 5.0 0.00 0.08 0.00 82 1016.7
20210729111101 74 5 2.0 5.0 0.00 0.08 0.00 82 1016.6
20210729110605 74 355 2.0 8.0 0.00 0.08 0.00 82 1016.5
20210729110101 74 5 2.0 8.0 0.00 0.08 0.00 82 1016.5
20210729105602 74 344 2.0 8.0 0.00 0.08 0.00 82 1016.3
20210729105101 74 0 2.0 5.0 0.00 0.08 0.00 81 1016.3
20210729104602 74 5 2.0 5.0 0.00 0.08 0.00 81 1016.4
20210729104101 74 355 2.0 8.0 0.00 0.08 0.00 81 1016.3
20210729103601 74 15 2.0 8.0 0.00 0.08 0.00 81 1016.3
20210729103102 74 355 2.0 5.0 0.00 0.08 0.00 81 1016.2
20210729102601 74 5 2.0 6.0 0.00 0.08 0.00 81 1016.0
20210729102102 75 355 2.0 9.0 0.00 0.08 0.00 81 1016.0
20210729101602 75 0 2.0 9.0 0.00 0.08 0.00 81 1015.9
20210729101101 75 355 2.0 7.0 0.00 0.08 0.00 81 1015.9
20210729100601 75 10 2.0 5.0 0.00 0.08 0.00 81 1015.9
20210729100100 75 348 2.0 6.0 0.00 0.08 0.00 80 1015.8
20210729095600 75 335 3.0 11.0 0.00 0.08 0.00 80 1015.8
20210729095101 75 0 3.0 11.0 0.00 0.08 0.00 80 1015.6
20210729094601 75 336 3.0 10.0 0.00 0.08 0.00 81 1015.6
20210729094102 76 26 3.0 9.0 0.00 0.08 0.00 81 1015.6
20210729093602 76 17 2.0 6.0 0.00 0.08 0.00 81 1015.6
20210729093103 76 10 3.0 8.0 0.00 0.08 0.00 81 1015.4
20210729092602 76 5 3.0 8.0 0.00 0.08 0.00 81 1015.3
20210729092101 76 0 3.0 8.0 0.00 0.08 0.00 81 1015.2
20210729091602 76 26 2.0 7.0 0.00 0.08 0.00 81 1015.2
20210729091101 76 23 2.0 9.0 0.00 0.08 0.00 81 1015.2
20210729090602 76 12 2.0 9.0 0.00 0.08 0.00 81 1015.1
20210729090101 77 10 2.0 8.0 0.00 0.08 0.00 81 1015.1
20210729085602 77 347 2.0 9.0 0.00 0.08 0.00 81 1014.9
20210729085100 77 15 2.0 9.0 0.00 0.08 0.00 81 1014.9
20210729084603 77 13 2.0 6.0 0.00 0.08 0.00 81 1014.9
20210729084100 77 9 2.0 6.0 0.00 0.08 0.00 81 1014.8
20210729083600 78 343 2.0 6.0 0.00 0.08 0.00 81 1014.7
20210729083058 78 13 2.0 4.0 0.00 0.08 0.00 81 1014.6
20210729082555 78 355 2.0 6.0 0.00 0.08 0.00 80 1014.6
20210729082049 78 338 2.0 6.0 0.00 0.08 0.00 80 1014.4
20210729081549 78 355 2.0 4.0 0.00 0.08 0.00 80 1014.4
20210729081050 78 355 2.0 6.0 0.00 0.08 0.00 80 1014.3
20210729080547 78 13 2.0 6.0 0.00 0.08 0.00 80 1014.2
20210729080048 78 342 1.0 4.0 0.00 0.08 0.00 80 1014.2
20210729075547 78 341 1.0 4.0 0.00 0.08 0.00 79 1014.2
20210729075041 79 0 2.0 5.0 0.00 0.08 0.00 79 1014.1
20210729074541 79 346 2.0 5.0 0.00 0.08 0.00 79 1014.0